sat.trackr.live / text

‹ back to catalog

STARLINK-1279

NORAD 45360 · 2020-019A

PAYLOAD ACTIVE UNKNOWN

§ Identity

Operator
Country
US
Launch date
2020-03-18
Launch site
AFETR
Launch vehicle
Mass (kg)
RCS (m²)

Purposes: comms

External: N2YO · Heavens-Above · Gunter

§ Orbital elements

Epoch: 2026-05-25T02:54:10.929312Z

Period
91.58 min
Inclination
53.0357°
Eccentricity
0.0008780
Mean motion
15.72382251 rev/d
Perigee alt
346.2 km
Apogee alt
358.0 km
Semi-major
6,730.2 km
B*
5.2530e-4
RAAN
83.3079°
Arg perigee
65.8479°
Mean anomaly
294.3456°
Rev number
34,264

§ Raw data

STARLINK-12791 45360U 20019A   26145.12095983  .00071345  00000+0  52530-3 0  99922 45360  53.0357  83.3079 0008780  65.8479 294.3456 15.72382251342643

JSON: /api/v1/satellites/45360 · /tle

For live sub-satellite position, see the globe view (requires WebGL).

§ Visibility from observer

Set your observer location to see the next 7 days of passes ≥ 10°. The values pass through the URL so the page stays shareable.

No JS? Fill the form by hand. The geolocation button needs JavaScript.